Location: Milano
(45.4670°N, 9.2000°E)
Time: 21:06:20
(UTC+02:00)

ISS - Pass Details

Date: 18 May 2021
Orbit: 417 x 422 km, 51.6° (Epoch: 14 June)

Event Time Altitude Azimuth Distance (km) Brightness Sun altitude
Rises 22:51:40 0° 268° (W) 2,361 0.6 -16.6°
Reaches altitude 10° 22:53:52 10° 277° (W) 1,499 -0.4 -16.9°
Maximum altitude 22:56:59 35° 345° (NNW) 701 -2.0 -17.2°
Drops below altitude 10° 23:00:08 10° 54° (NE) 1,506 -0.9 -17.5°
Sets 23:02:21 0° 64° (ENE) 2,372 0.0 -17.7°
